| time (UTC) | temp F | wind direction | speed knots | gust knots | rain 1hr in | rain 24hr in | rain mn in | humidity % | barometer mb |
| 20260903040039 | 58 | 295 | 1.7 | 6.1 | 0.00 | 0.02 | 0.02 | 82 | 1007.3 |
| 20260903034537 | 58 | 267 | 0.9 | 4.3 | 0.00 | 0.02 | 0.02 | 82 | 1007.0 |
| 20260903033037 | 58 | 304 | 0.9 | 4.3 | 0.00 | 0.02 | 0.02 | 82 | 1006.8 |
| 20260903031637 | 58 | 271 | 0.9 | 6.1 | 0.00 | 0.02 | 0.02 | 81 | 1006.7 |
| 20260903030041 | 59 | 355 | 0.0 | 2.6 | 0.00 | 0.02 | 0.02 | 81 | 1006.6 |
| 20260903024542 | 59 | 270 | 0.0 | 2.6 | 0.00 | 0.02 | 0.02 | 80 | 1006.6 |
| 20260903023035 | 59 | 249 | 0.0 | 5.2 | 0.00 | 0.02 | 0.02 | 79 | 1006.7 |
| 20260903021536 | 59 | 255 | 0.0 | 0.9 | 0.00 | 0.02 | 0.02 | 79 | 1006.7 |
| 20260903020034 | 59 | 256 | 0.9 | 4.3 | 0.00 | 0.02 | 0.02 | 79 | 1006.7 |
| 20260903014533 | 60 | 283 | 0.0 | 2.6 | 0.00 | 0.02 | 0.02 | 78 | 1006.7 |
| 20260903013132 | 60 | 269 | 0.9 | 4.3 | 0.00 | 0.02 | 0.02 | 77 | 1006.8 |
| 20260903011540 | 60 | 342 | 0.0 | 2.6 | 0.00 | 0.02 | 0.02 | 75 | 1006.7 |
| 20260903010031 | 60 | 263 | 0.0 | 3.5 | 0.00 | 0.02 | 0.02 | 74 | 1006.8 |
| 20260903004532 | 61 | 222 | 0.0 | 2.6 | 0.00 | 0.02 | 0.02 | 74 | 1006.8 |
| 20260903003030 | 61 | 287 | 0.9 | 6.1 | 0.00 | 0.02 | 0.02 | 68 | 1006.9 |
| 20260903001529 | 61 | 36 | 2.6 | 7.0 | 0.00 | 0.02 | 0.02 | 67 | 1006.9 |
| 20260903000028 | 61 | 104 | 2.6 | 7.0 | 0.00 | 0.02 | 0.02 | 67 | 1007.0 |
| 20260902234627 | 61 | 53 | 2.6 | 8.7 | 0.00 | 0.02 | 0.02 | 67 | 1007.1 |
| 20260902233035 | 61 | 69 | 2.6 | 6.1 | 0.00 | 0.02 | 0.02 | 71 | 1007.0 |
| 20260902231527 | 61 | 49 | 1.7 | 7.8 | 0.00 | 0.02 | 0.02 | 70 | 1006.9 |
| 20260902230026 | 61 | 94 | 1.7 | 7.8 | 0.01 | 0.02 | 0.02 | 70 | 1007.0 |
| 20260902224525 | 62 | 58 | 5.2 | 10.4 | 0.02 | 0.02 | 0.02 | 66 | 1006.8 |
| 20260902223025 | 62 | 81 | 5.2 | 14.8 | 0.02 | 0.02 | 0.02 | 66 | 1006.6 |
| 20260902221524 | 62 | 82 | 3.5 | 10.4 | 0.02 | 0.02 | 0.02 | 71 | 1006.6 |
| 20260902220125 | 62 | 60 | 4.3 | 14.8 | 0.01 | 0.01 | 0.01 | 70 | 1006.7 |
| 20260902214521 | 66 | 327 | 7.0 | 19.1 | 0.00 | 0.00 | 0.00 | 56 | 1006.6 |
| 20260902213021 | 67 | 89 | 7.8 | 14.8 | 0.00 | 0.00 | 0.00 | 52 | 1006.2 |
| 20260902211520 | 69 | 57 | 7.0 | 13.9 | 0.00 | 0.00 | 0.00 | 50 | 1005.9 |
| 20260902210020 | 72 | 32 | 2.6 | 7.8 | 0.00 | 0.00 | 0.00 | 40 | 1005.3 |
| 20260902204535 | 71 | 314 | 1.7 | 5.2 | 0.00 | 0.00 | 0.00 | 41 | 1005.1 |
| 20260902203021 | 71 | 250 | 0.9 | 7.8 | 0.00 | 0.00 | 0.00 | 41 | 1005.4 |
| 20260902201635 | 72 | 270 | 3.5 | 8.7 | 0.00 | 0.00 | 0.00 | 42 | 1005.4 |
| 20260902200016 | 73 | 11 | 1.7 | 8.7 | 0.00 | 0.00 | 0.00 | 39 | 1005.5 |
| 20260902194514 | 73 | 32 | 6.1 | 12.2 | 0.00 | 0.00 | 0.00 | 37 | 1005.6 |
| 20260902193010 | 73 | 15 | 4.3 | 9.6 | 0.00 | 0.00 | 0.00 | 38 | 1005.8 |
| 20260902191515 | 72 | 42 | 5.2 | 11.3 | 0.00 | 0.00 | 0.00 | 38 | 1006.0 |
| 20260902190007 | 72 | 56 | 7.0 | 15.6 | 0.00 | 0.00 | 0.00 | 38 | 1006.2 |
| 20260902184505 | 72 | 326 | 7.8 | 14.8 | 0.00 | 0.00 | 0.00 | 37 | 1006.1 |
| 20260902183103 | 72 | 101 | 3.5 | 7.8 | 0.00 | 0.00 | 0.00 | 40 | 1006.2 |
| 20260902181614 | 71 | 126 | 0.9 | 7.0 | 0.00 | 0.00 | 0.00 | 42 | 1006.5 |
| 20260902180100 | 69 | 270 | 0.9 | 5.2 | 0.00 | 0.00 | 0.00 | 47 | 1006.5 |
| 20260902174551 | 67 | 271 | 3.5 | 7.0 | 0.00 | 0.00 | 0.00 | 51 | 1006.7 |
| 20260902173051 | 67 | 287 | 1.7 | 4.3 | 0.00 | 0.00 | 0.00 | 51 | 1006.7 |
| 20260902171558 | 65 | 248 | 0.0 | 4.3 | 0.00 | 0.00 | 0.00 | 58 | 1006.8 |
| 20260902170047 | 65 | 256 | 1.7 | 4.3 | 0.00 | 0.00 | 0.00 | 59 | 1006.9 |
| 20260902164555 | 65 | 215 | 0.9 | 4.3 | 0.00 | 0.00 | 0.00 | 59 | 1006.9 |
| 20260902163047 | 64 | 233 | 1.7 | 3.5 | 0.00 | 0.00 | 0.00 | 60 | 1006.9 |
| 20260902161548 | 64 | 227 | 2.6 | 4.3 | 0.00 | 0.00 | 0.00 | 62 | 1007.1 |
| 20260902160042 | 62 | 51 | 0.0 | 1.7 | 0.00 | 0.00 | 0.00 | 65 | 1007.3 |
| 20260902154557 | 62 | 53 | 0.0 | 2.6 | 0.00 | 0.00 | 0.00 | 68 | 1007.5 |
| 20260902153042 | 60 | 82 | 0.9 | 3.5 | 0.00 | 0.00 | 0.00 | 73 | 1007.6 |
| 20260902151540 | 59 | 79 | 2.6 | 5.2 | 0.00 | 0.00 | 0.00 | 76 | 1007.6 |
| 20260902150038 | 60 | 89 | 1.7 | 4.3 | 0.00 | 0.00 | 0.00 | 71 | 1007.6 |
| 20260902144540 | 59 | 207 | 0.0 | 1.7 | 0.00 | 0.00 | 0.00 | 74 | 1007.5 |
| 20260902143037 | 58 | 191 | 0.0 | 1.7 | 0.00 | 0.00 | 0.00 | 76 | 1007.8 |
| 20260902141536 | 56 | 88 | 0.0 | 0.0 | 0.00 | 0.00 | 0.00 | 79 | 1007.7 |
| 20260902140039 | 56 | 88 | 0.0 | 0.9 | 0.00 | 0.00 | 0.00 | 79 | 1007.8 |
| 20260902134535 | 55 | 88 | 0.0 | 0.0 | 0.00 | 0.00 | 0.00 | 80 | 1007.9 |
| 20260902133034 | 55 | 88 | 0.0 | 0.0 | 0.00 | 0.00 | 0.00 | 81 | 1007.7 |
| 20260902131534 | 55 | 87 | 0.0 | 1.7 | 0.00 | 0.00 | 0.00 | 81 | 1007.7 |
| 20260902130033 | 55 | 50 | 0.0 | 0.0 | 0.00 | 0.00 | 0.00 | 81 | 1007.7 |
| 20260902124534 | 55 | 50 | 0.0 | 0.9 | 0.00 | 0.00 | 0.00 | 80 | 1007.8 |
| 20260902123028 | 56 | 63 | 0.0 | 0.9 | 0.00 | 0.00 | 0.00 | 79 | 1007.7 |
| 20260902121527 | 56 | 63 | 0.0 | 0.9 | 0.00 | 0.00 | 0.00 | 78 | 1007.8 |
| 20260902120027 | 56 | 64 | 0.0 | 0.9 | 0.00 | 0.00 | 0.00 | 77 | 1008.0 |
| 20260902114523 | 57 | 352 | 0.9 | 1.7 | 0.00 | 0.00 | 0.00 | 76 | 1007.8 |
| 20260902113019 | 58 | 68 | 0.0 | 1.7 | 0.00 | 0.00 | 0.00 | 74 | 1007.4 |
| 20260902111518 | 59 | 104 | 0.0 | 0.9 | 0.00 | 0.00 | 0.00 | 73 | 1007.3 |
| 20260902110017 | 59 | 104 | 0.0 | 0.9 | 0.00 | 0.00 | 0.00 | 72 | 1007.3 |
| 20260902104517 | 60 | 104 | 0.9 | 2.6 | 0.00 | 0.00 | 0.00 | 69 | 1007.5 |
| 20260902103028 | 60 | 24 | 0.0 | 0.9 | 0.00 | 0.00 | 0.00 | 67 | 1007.3 |
| 20260902101525 | 60 | 340 | 0.0 | 1.7 | 0.00 | 0.00 | 0.00 | 67 | 1007.1 |
| 20260902100015 | 60 | 94 | 0.0 | 2.6 | 0.00 | 0.00 | 0.00 | 68 | 1006.8 |
| 20260902094514 | 60 | 108 | 0.9 | 7.0 | 0.00 | 0.00 | 0.00 | 68 | 1006.9 |
| 20260902093013 | 59 | 169 | 0.9 | 5.2 | 0.00 | 0.00 | 0.00 | 69 | 1006.5 |
| 20260902091510 | 58 | 65 | 0.0 | 0.9 | 0.00 | 0.00 | 0.00 | 67 | 1007.7 |
| 20260902090007 | 61 | 41 | 1.7 | 4.3 | 0.00 | 0.00 | 0.00 | 61 | 1007.3 |
| 20260902084505 | 62 | 163 | 0.0 | 2.6 | 0.00 | 0.00 | 0.00 | 61 | 1006.8 |
| 20260902083003 | 62 | 113 | 0.0 | 5.2 | 0.00 | 0.00 | 0.00 | 59 | 1007.0 |
| 20260902081503 | 62 | 114 | 0.9 | 3.5 | 0.00 | 0.00 | 0.00 | 57 | 1007.3 |
| 20260902080101 | 63 | 150 | 0.0 | 3.5 | 0.00 | 0.00 | 0.00 | 56 | 1007.1 |
| 20260902074600 | 63 | 104 | 0.0 | 2.6 | 0.00 | 0.00 | 0.00 | 58 | 1007.1 |
| 20260902073058 | 63 | 131 | 0.9 | 4.3 | 0.00 | 0.00 | 0.00 | 59 | 1007.4 |
| 20260902071602 | 64 | 158 | 0.0 | 3.5 | 0.00 | 0.00 | 0.00 | 59 | 1007.6 |
| 20260902070050 | 64 | 139 | 0.0 | 4.3 | 0.00 | 0.00 | 0.00 | 58 | 1007.9 |
| 20260902064558 | 65 | 163 | 0.0 | 2.6 | 0.00 | 0.00 | 0.00 | 58 | 1007.9 |
| 20260902063052 | 65 | 118 | 2.6 | 5.2 | 0.00 | 0.00 | 0.00 | 57 | 1007.8 |
| 20260902060054 | 66 | 134 | 2.6 | 8.7 | 0.00 | 0.00 | 0.00 | 55 | 1007.5 |
| 20260902054546 | 66 | 124 | 3.5 | 7.0 | 0.00 | 0.00 | 0.00 | 56 | 1007.4 |
| 20260902053046 | 66 | 114 | 0.9 | 7.0 | 0.00 | 0.00 | 0.00 | 57 | 1007.3 |
| 20260902051546 | 66 | 110 | 1.7 | 7.0 | 0.00 | 0.00 | 0.00 | 57 | 1007.3 |
| 20260902044604 | 67 | 134 | 1.7 | 7.8 | 0.00 | 0.00 | 0.00 | 56 | 1006.7 |
| 20260902043043 | 67 | 152 | 2.6 | 8.7 | 0.00 | 0.00 | 0.00 | 56 | 1006.5 |
| 20260902041542 | 67 | 114 | 2.6 | 7.8 | 0.00 | 0.00 | 0.00 | 56 | 1006.3 |